Simultaneous Nadir Overpasses (SNOs) Predictions

Prediction of SNOs between METOP-B and TERRA Satellite Orbit:

Table of predicted SNOs for the next 14.0 days since TLE Epoch: 2/13/2016
Index Date (METOP-B) Time (METOP-B) Lat,Lon (METOP-B) SZA (METOP-B ) Date (TERRA) Time (TERRA) Lat,Lon (TERRA) SZA (TERRA ) Distance(km) Time Diff (sec)
1 02/14/2016 23:33:45 81.35,-125.53 96.67 02/14/2016 23:34:40 81.36,-125.46 96.71 1.45 55
2 02/15/2016 00:24:25 -81.36, 42.02 83.32 02/15/2016 00:24:07 -81.35, 42.04 83.33 0.30 18
3 02/17/2016 19:08:05 81.36, -58.88 95.74 02/17/2016 19:08:53 81.36, -59.06 95.74 3.10 48
4 02/17/2016 19:58:46 -81.35, 108.30 84.30 02/17/2016 19:58:20 -81.35, 108.47 84.29 2.85 26
5 02/20/2016 14:42:25 81.35, 7.38 94.73 02/20/2016 14:43:05 81.35, 7.20 94.73 3.02 40
6 02/20/2016 15:33:05 -81.36, 174.97 85.26 02/20/2016 15:32:31 -81.37, 175.14 85.25 3.05 34
7 02/23/2016 10:16:46 81.35, 73.64 93.71 02/23/2016 10:17:17 81.35, 73.71 93.73 1.22 31
8 02/23/2016 11:07:26 -81.36,-118.75 86.28 02/23/2016 11:06:44 -81.35,-118.70 86.30 1.05 42
9 02/26/2016 05:51:07 81.35, 139.90 92.67 02/26/2016 05:51:29 81.35, 140.08 92.69 3.11 22




NCC Satellite Simultaneous Nadir Overpasses (SNOs) Prediction Service
